Regional Weather Roundup
Issued by NWS

Home | Current Version | Previous Version | Graphics & Text | Print | Product List | Glossary On
Versions: 1 2 3 4 5 6 7 8 9 10 11 12 13 14 15 16 17 18 19 20 21 22 23 24 25 26 27 28 29 30 31 32 33 34 35 36 37 38 39 40 41 42 43 44 45 46 47 48 49 50
288
ASUS43 KFSD 030710
RWRSD

WEATHER ROUNDUP FOR SOUTH DAKOTA
NATIONAL WEATHER SERVICE SIOUX FALLS SD
100 AM CST SAT DEC 03 2016

NOTE: "FAIR" INDICATES FEW OR NO CLOUDS BELOW 12,000 FEET WITH NO
SIGNIFICANT WEATHER AND/OR OBSTRUCTIONS TO VISIBILITY.


SDZ001>005-009-010-012>017-030800-
NORTHWEST AND NORTH CENTRAL SOUTH DAKOTA

CITY           SKY/WX    TMP DP  RH WIND       PRES   REMARKS
BUFFALO          N/A     22  20  92 S8        29.97F WCI  12
FAITH            N/A     16  16 100 S15       30.10F WCI   1
MOBRIDGE       CLOUDY    29  24  82 S9        30.15F WCI  20
$$

SDZ012>016-024>037-041>051-057-063-072>074-030800-
SOUTHWEST AND SOUTH CENTRAL SOUTH DAKOTA

CITY           SKY/WX    TMP DP  RH WIND       PRES   REMARKS
RAPID CTY ARPT CLEAR     21  17  84 SE7       30.09F WCI  12
PIERRE         NOT AVBL
CUSTER         CLOUDY    21  17  84 SW5       30.04F WCI  15
ELLSWORTH AFB  CLEAR     24  21  86 S9        30.07F WCI  15
PHILIP         CLEAR     10   8  92 CALM      30.17F
PINE RIDGE     CLEAR     20  18  92 CALM      30.14F
SPEARFISH      FAIR      32  18  55 VRB6G17   30.01F WCI  26
$$

SDZ004>011-016>023-039-040-030800-
NORTHEAST SOUTH DAKOTA

CITY           SKY/WX    TMP DP  RH WIND       PRES   REMARKS
ABERDEEN       NOT AVBL
WATERTOWN      NOT AVBL
BROOKINGS      CLOUDY    25  20  81 N3        30.27
SISSETON         N/A     26  18  71 W6        30.29R WCI  19
$$

SDZ017-020-022-023-036>040-048>070-030800-
SOUTHEAST SOUTH DAKOTA

CITY           SKY/WX    TMP DP  RH WIND       PRES   REMARKS
SIOUX FALLS    MOCLDY    25  23  92 SW3       30.29S
HURON          CLEAR     26  25  96 SE5       30.27F WCI  20
YANKTON        PTCLDY    25  21  86 CALM      30.31S
$$

ABBREVIATIONS USED IN REMARKS
   TC - TEMPERATURE IN CELSIUS
  WCI - WIND CHILL INDEX
   HX - HEAT INDEX
  VSB - VISIBILITY





USA.gov is the U.S. government's official web portal to all federal, state and local government web resources and services.